SCP
0 0 0 0 0 0 0 0 0 0 0 0 0 0 0 0 0 0 0 0 0 0 0 0 0 0 0 0 0 0 0 0 0 0 0 0 0 0 0 0 0 0 0
0 0 0 0 0 0 0 0 0 0 0 0 0 0 0 0 0 0 0 0 0 0 0 0 0 0 0 0 0 0 0 0 0 0 0 0 0 0 0 0 0 -0 0
0 0 0 0 0 0 0 0 0 0 0 0 0 0 0 0 0 0 0 0 0 0 0 0 0 0 0 0 0 0 0 0 0 0 0 0 0 0 0 0 0 0 -0
0 0 0 0 0 0 0 0 0 0 0 0 0 0 0 0 0 0 0 0 0 0 0 0 0 0 0 0 0 0 0 0 0 0 0 0 0 0 0 0 0 0 0
0 0 0 0 0 0 0 0 0 0 0 0 0 0 0 0 0 0 0 0 0 0 0 0 0 0 0 0 0 0 0 0 0 0 0 0 0 0 0 0 0 0 0
0 0 0 0 0 0 0 0 0 0 0 0 0 0 0 0 0 0 0 0 0 0 0 0 0 0 0 0 0 0 0 0 0 0 0 0 0 0 0 0 0 0 0
0 0 0 0 0 0 0 0 0 0 0 0 0 0 0 0 0 0 0 0 0 0 0 0 0 0 0 0 0 0 0 0 0 0 0 0 0 0 0 0 0 0 0
0 0 0 0 0 0 0 0 0 0 0 0 0 0 0 0 0 0 0 0 0 0 0 0 0 0 0 0 0 0 0 0 0 0 0 0 0 0 0 0 0 0 0
0 0 0 0 0 0 0 0 0 0 0 0 0 0 0 0 0 0 0 0 0 0 0 0 0 0 0 0 0 0 0 0 0 0 0 0 0 0 0 0 0 0 0
0 0 0 0 0 0 0 0 0 0 0 0 0 0 0 0 0 0 0 0 0 0 0 0 0 0 0 0 0 0 0 0 0 0 0 0 0 0 0 0 0 0 0
0 0 0 0 0 0 0 0 0 0 0 0 0 0 0 0 0 0 0 0 0 0 0 0 0 0 0 0 0 0 0 0 0 0 0 0 0 0 0 0 0 0 0
0 0 0 0 0 0 0 0 0 0 0 0 0 0 0 0 0 0 0 0 0 0 0 0 0 0 0 0 0 0 0 0 0 0 0 0 0 0 0 0 0 0 0
0 0 0 0 0 0 0 0 0 0 0 0 0 0 0 0 0 0 0 0 0 0 0 0 0 0 0 0 0 0 0 0 0 0 0 0 0 0 0 0 0 0 0
0 0 0 0 0 0 0 0 0 0 0 0 0 0 0 0 0 0 0 0 0 0 0 0 0 0 0 0 0 0 0 0 0 0 0 0 0 0 0 0 0 0 0
0 0 0 0 0 0 0 0 0 0 0 0 0 0 0 0 0 0 0 0 0 0 0 0 0 0 0 0 0 0 0 0 0 0 0 0 0 0 0 0 0 0 0
0 0 0 0 0 0 0 0 0 0 0 0 0 0 0 0 0 0 0 0 0 0 0 0 0 0 0 0 0 0 0 0 0 0 0 0 0 0 0 0 0 0 0
0 0 0 0 0 0 0 0 0 0 0 0 0 0 0 0 0 0 0 0 0 0 0 0 0 0 0 0 0 0 0 0 0 0 0 0 0 0 0 0 0 0 0
0 0 0 0 0 0 0 0 0 0 0 0 0 0 0 0 0 0 0 0 0 0 0 0 0 0 0 0 0 0 0 0 0 0 0 0 0 0 0 0 0 0 0
0 0 0 0 0 0 0 0 0 0 0 0 0 0 0 0 0 0 0 0 0 0 0 0 0 0 0 0 0 0 0 0 0 0 0 0 0 0 0 0 0 0 0
0 0 0 0 0 0 0 0 0 0 0 0 0 0 0 0 0 0 0 0 0 0 0 0 0 0 0 0 0 0 0 0 0 0 0 0 0 0 0 0 0 0 0
0 0 0 0 0 0 0 0 0 0 0 0 0 0 0 0 0 0 0 0 0 0 0 0 0 0 0 0 0 0 0 0 0 0 0 0 0 0 0 0 0 0 0
0 0 0 0 0 0 0 0 0 0 0 0 0 0 0 0 0 0 0 0 0 0 0 0 0 0 0 0 0 0 0 0 0 0 0 0 0 0 0 0 0 0 0
0 0 0 0 0 0 0 0 0 0 0 0 0 0 0 0 0 0 0 0 0 0 0 0 0 0 0 0 0 0 0 0 0 0 0 0 0 0 0 0 0 0 0
0 0 0 0 0 0 0 0 0 0 0 0 0 0 0 0 0 0 0 0 0 0 0 0 0 0 0 0 0 0 0 0 0 0 0 0 0 0 0 0 0 0 0
0 0 0 0 0 0 0 0 0 0 0 0 0 0 0 0 0 0 0 0 0 0 0 0 0 0 0 0 0 0 0 0 0 0 0 0 0 0 0 0 0 0 0
0 0 0 0 0 0 0 0 0 0 0 0 0 0 0 0 0 0 0 0 0 0 0 0 0 0 0 0 0 0 0 0 0 0 0 0 0 0 0 0 0 0 0
Wind_Speed_500mb
30 17 9 7 2 5 19 16 16 14 14 14 16 17 20 21 22 25 27 29 31 32 32 32 33 34 33 34 37 41 44 49 62 77 80 86 87 88 94 94 97 102 106
6 3 10 12 22 20 21 15 14 15 15 16 16 18 20 20 23 25 27 29 29 31 32 34 34 33 34 37 42 46 49 53 63 82 84 86 88 90 95 101 105 106 108
32 35 31 25 22 20 17 15 16 18 16 16 17 18 20 23 25 27 28 29 31 33 33 34 35 36 38 42 47 51 55 62 69 74 84 84 88 95 102 103 103 110 108
39 34 29 25 23 21 19 20 20 20 18 17 18 19 22 25 27 28 30 30 31 33 35 35 37 39 44 47 52 55 61 68 67 69 77 84 90 94 90 101 117 107 108
36 33 31 29 26 23 24 24 23 21 18 19 20 22 25 28 28 28 31 32 31 33 35 34 37 42 46 47 49 53 63 63 64 67 76 82 84 85 87 99 100 102 98
39 36 34 32 29 28 29 27 24 21 20 22 23 24 28 31 31 30 30 32 33 35 35 35 38 42 46 47 49 56 57 58 59 65 69 74 72 82 88 83 87 92 88
41 38 37 34 32 33 31 30 27 24 23 25 27 29 30 30 32 32 32 33 35 37 37 37 38 41 44 48 55 61 57 54 53 54 62 68 77 76 73 80 79 81 91
41 39 40 37 37 35 33 31 29 28 28 30 32 32 32 30 32 34 34 35 37 36 38 37 37 40 43 51 62 61 60 58 56 52 53 64 61 60 59 60 70 80 81
43 42 41 41 39 37 35 34 33 33 34 35 35 35 34 32 34 36 36 37 37 36 34 34 38 41 48 55 58 61 60 59 58 56 57 58 59 54 47 58 60 66 81
43 42 42 41 41 39 37 38 38 39 40 40 38 36 35 35 36 39 40 39 36 33 31 33 37 42 49 53 54 56 58 58 62 63 60 59 56 55 50 44 49 56 64
42 43 42 41 40 40 43 45 44 46 45 43 41 39 37 37 39 40 41 38 36 34 33 35 36 42 47 49 48 50 50 50 56 58 61 60 57 54 54 49 46 46 59
43 41 40 41 43 47 49 50 50 50 48 45 44 42 40 40 39 39 41 39 35 35 35 34 37 43 46 48 47 46 49 52 54 56 58 59 59 58 58 56 55 52 50
38 39 42 45 49 51 53 53 54 54 52 48 47 46 45 41 39 39 38 37 33 33 34 35 40 45 46 47 46 48 50 51 53 55 57 57 55 56 58 61 60 58 56
39 41 45 50 52 53 54 56 57 56 54 53 51 49 46 45 41 39 36 35 34 35 32 35 41 44 45 47 49 48 48 49 52 53 55 54 55 58 58 59 63 65 68
45 49 52 55 57 58 59 59 60 59 57 55 53 52 49 47 43 41 36 34 36 37 36 39 42 44 47 50 50 47 47 48 50 51 51 53 56 58 59 58 57 61 62
56 58 59 61 62 64 64 62 62 61 59 59 56 54 50 50 47 44 39 37 38 38 39 41 43 46 50 52 52 51 47 48 50 52 51 51 54 56 59 58 56 57 61
62 62 63 65 66 67 68 67 66 61 61 60 56 54 54 55 48 44 39 40 37 38 41 41 45 48 51 51 52 51 51 48 50 51 51 49 51 53 54 56 56 55 57
59 62 65 68 70 73 74 72 68 66 63 59 54 51 53 53 48 41 41 40 35 38 41 43 46 50 51 53 52 51 50 50 50 50 50 49 48 51 52 52 52 52 52
61 65 68 72 74 75 75 73 70 65 63 59 55 53 54 46 45 40 43 36 36 38 40 43 47 50 51 52 51 50 51 52 52 51 49 48 46 48 49 48 47 46 45
64 67 69 71 72 72 73 71 68 65 62 59 58 52 48 46 42 40 38 35 37 39 41 46 47 49 50 50 50 51 53 53 53 50 49 48 45 44 46 45 43 45 43
63 64 65 67 67 66 65 67 64 61 59 57 54 50 45 44 41 37 35 37 38 39 43 48 50 50 49 51 52 54 55 55 52 51 50 48 44 44 42 39 39 38 40
59 60 60 60 59 61 59 58 59 59 57 55 52 47 46 45 37 36 36 36 38 41 45 49 49 49 49 51 53 54 55 54 50 47 45 44 43 41 39 35 36 36 37
58 59 59 58 57 57 56 55 55 55 54 52 50 47 46 41 36 37 37 37 38 41 43 45 48 46 43 43 43 46 51 51 48 44 42 40 40 39 34 32 33 36 36
58 58 58 59 57 56 55 52 51 51 51 51 49 46 42 38 38 38 36 36 40 40 41 40 39 38 38 36 36 38 42 43 43 38 35 36 38 34 30 28 31 33 34
59 59 60 59 57 55 53 52 51 50 50 48 46 44 41 37 36 36 35 38 38 37 32 30 29 30 30 31 36 40 40 39 36 34 34 35 35 31 26 28 28 33 35
60 59 58 58 59 56 55 53 51 48 47 45 44 42 39 33 35 34 35 34 32 28 25 22 23 20 22 31 36 36 33 31 26 27 32 33 31 28 27 29 30 34 35
Wind_Direction_500mb
109 107 51 53 105 297 270 254 255 285 300 310 323 328 331 333 333 338 342 342 344 344 342 340 341 342 342 343 343 339 335 331 323 324 328 332 332 335 335 335 335 334 332
85 241 233 196 233 236 236 257 283 292 300 309 316 319 323 328 334 335 336 336 335 334 334 335 336 335 337 340 338 337 334 333 329 326 330 332 335 337 335 334 334 334 333
240 206 212 233 240 237 249 267 278 281 290 300 309 318 322 328 327 327 326 327 328 328 330 329 327 331 335 334 335 335 334 335 333 328 329 334 335 338 334 334 333 333 334
197 219 234 237 238 243 255 267 271 277 286 300 307 314 317 318 319 317 317 322 325 325 322 320 323 329 331 332 334 337 337 333 333 333 331 332 336 337 335 332 331 333 333
223 235 235 237 240 248 258 263 268 276 287 297 303 309 312 308 307 311 316 320 321 317 313 315 321 322 326 329 333 334 335 335 334 332 331 330 333 334 332 331 330 328 331
234 234 239 240 242 249 258 264 268 274 288 292 297 299 299 304 310 310 312 314 314 309 309 314 317 320 323 327 328 332 337 335 334 331 327 328 327 327 329 332 326 327 326
235 237 240 242 246 251 259 264 269 276 283 286 289 287 292 300 305 309 310 309 309 307 308 312 315 316 323 324 329 333 335 336 332 327 327 326 322 328 328 324 323 318 318
239 242 243 245 248 254 260 267 274 276 276 277 280 285 290 297 304 306 308 307 305 306 308 310 314 322 327 327 328 332 333 334 333 333 325 320 323 323 318 318 313 315 317
242 245 247 248 253 259 264 268 272 272 271 273 276 282 289 296 301 306 303 300 301 301 302 313 320 322 326 328 328 329 329 332 333 335 330 328 328 327 326 317 325 324 321
249 251 249 251 256 264 271 273 272 269 268 270 274 282 288 295 302 298 295 295 295 300 314 313 315 319 323 327 326 327 328 333 332 332 333 333 333 332 330 330 326 323 320
250 251 254 259 267 274 275 274 271 266 267 271 276 281 286 293 293 293 294 297 296 304 305 306 317 321 324 326 327 329 328 323 329 330 333 335 334 334 333 334 333 326 318
252 255 261 268 272 275 275 274 272 270 270 273 277 281 284 284 283 284 288 292 295 296 300 312 322 324 326 327 329 329 326 328 330 332 333 336 337 336 335 336 336 333 325
253 258 264 270 276 278 279 277 274 272 274 275 278 279 276 275 276 280 283 286 287 292 304 316 320 321 322 326 331 330 329 329 331 332 332 335 335 334 337 336 336 335 334
258 267 273 277 280 281 281 278 276 277 277 275 275 275 273 273 275 277 278 278 284 292 303 313 314 317 323 326 327 328 329 331 331 329 329 331 332 339 340 339 337 339 339
271 274 278 282 283 284 284 283 281 279 276 276 275 271 269 269 271 272 273 278 283 292 304 310 312 318 324 324 326 328 328 326 325 325 327 329 336 337 338 339 340 340 341
278 280 282 282 282 282 283 283 282 281 277 275 271 270 267 264 267 270 273 276 279 292 301 307 315 320 321 322 325 324 324 324 324 325 327 332 333 335 336 339 339 340 340
279 281 281 282 282 283 283 283 283 280 276 274 270 266 262 263 264 270 272 276 282 290 299 308 315 316 318 320 321 320 323 325 322 324 327 330 330 333 336 337 338 338 339
286 285 284 284 284 283 282 282 280 277 276 274 270 265 259 260 262 267 271 276 282 288 300 307 313 314 317 319 319 318 319 320 319 321 324 327 331 331 333 335 336 337 337
289 288 286 284 284 283 280 278 276 275 274 272 266 259 260 259 262 263 271 274 278 289 298 306 309 312 316 315 314 316 316 316 316 319 321 324 328 327 330 333 332 335 336
291 290 289 287 285 282 279 277 275 274 271 268 266 261 257 255 260 266 266 271 281 290 299 304 309 313 313 312 314 314 312 313 313 315 315 317 322 324 327 328 331 333 338
295 293 291 288 286 284 280 276 274 272 270 267 265 263 258 252 260 262 263 271 282 293 300 306 311 311 312 313 314 313 312 312 312 310 309 311 317 320 322 323 327 331 337
303 301 299 295 290 286 283 278 273 270 268 265 262 259 255 255 262 263 266 273 284 295 303 307 307 309 313 316 316 315 314 315 313 307 304 307 313 316 317 319 326 328 338
310 306 302 297 292 288 283 277 272 269 266 263 260 255 251 260 262 261 266 277 290 298 302 304 308 314 319 322 323 323 322 323 319 313 307 306 308 313 315 317 325 330 333
314 309 303 298 292 287 282 278 273 268 264 261 257 252 252 254 256 261 273 285 295 301 304 308 313 320 326 333 334 333 329 326 322 319 312 309 309 314 314 316 327 329 331
310 305 300 295 291 285 280 275 270 267 264 259 254 250 250 252 256 265 278 290 297 301 305 310 316 326 333 340 337 334 332 331 329 324 320 312 310 314 312 312 319 331 327
307 303 298 293 289 285 279 275 271 267 259 254 249 247 249 250 259 272 283 290 295 300 305 312 324 336 345 340 337 334 334 338 342 341 333 326 321 316 312 313 316 308 316
Wind_Speed_850mb
30 17 9 7 2 5 19 16 16 14 14 14 16 17 20 21 22 25 27 29 31 32 32 32 33 34 33 34 37 41 44 49 62 77 80 86 87 88 94 94 97 102 106
6 3 10 12 22 20 21 15 14 15 15 16 16 18 20 20 23 25 27 29 29 31 32 34 34 33 34 37 42 46 49 53 63 82 84 86 88 90 95 101 105 106 108
32 35 31 25 22 20 17 15 16 18 16 16 17 18 20 23 25 27 28 29 31 33 33 34 35 36 38 42 47 51 55 62 69 74 84 84 88 95 102 103 103 110 108
39 34 29 25 23 21 19 20 20 20 18 17 18 19 22 25 27 28 30 30 31 33 35 35 37 39 44 47 52 55 61 68 67 69 77 84 90 94 90 101 117 107 108
36 33 31 29 26 23 24 24 23 21 18 19 20 22 25 28 28 28 31 32 31 33 35 34 37 42 46 47 49 53 63 63 64 67 76 82 84 85 87 99 100 102 98
39 36 34 32 29 28 29 27 24 21 20 22 23 24 28 31 31 30 30 32 33 35 35 35 38 42 46 47 49 56 57 58 59 65 69 74 72 82 88 83 87 92 88
41 38 37 34 32 33 31 30 27 24 23 25 27 29 30 30 32 32 32 33 35 37 37 37 38 41 44 48 55 61 57 54 53 54 62 68 77 76 73 80 79 81 91
41 39 40 37 37 35 33 31 29 28 28 30 32 32 32 30 32 34 34 35 37 36 38 37 37 40 43 51 62 61 60 58 56 52 53 64 61 60 59 60 70 80 81
43 42 41 41 39 37 35 34 33 33 34 35 35 35 34 32 34 36 36 37 37 36 34 34 38 41 48 55 58 61 60 59 58 56 57 58 59 54 47 58 60 66 81
43 42 42 41 41 39 37 38 38 39 40 40 38 36 35 35 36 39 40 39 36 33 31 33 37 42 49 53 54 56 58 58 62 63 60 59 56 55 50 44 49 56 64
42 43 42 41 40 40 43 45 44 46 45 43 41 39 37 37 39 40 41 38 36 34 33 35 36 42 47 49 48 50 50 50 56 58 61 60 57 54 54 49 46 46 59
43 41 40 41 43 47 49 50 50 50 48 45 44 42 40 40 39 39 41 39 35 35 35 34 37 43 46 48 47 46 49 52 54 56 58 59 59 58 58 56 55 52 50
38 39 42 45 49 51 53 53 54 54 52 48 47 46 45 41 39 39 38 37 33 33 34 35 40 45 46 47 46 48 50 51 53 55 57 57 55 56 58 61 60 58 56
39 41 45 50 52 53 54 56 57 56 54 53 51 49 46 45 41 39 36 35 34 35 32 35 41 44 45 47 49 48 48 49 52 53 55 54 55 58 58 59 63 65 68
45 49 52 55 57 58 59 59 60 59 57 55 53 52 49 47 43 41 36 34 36 37 36 39 42 44 47 50 50 47 47 48 50 51 51 53 56 58 59 58 57 61 62
56 58 59 61 62 64 64 62 62 61 59 59 56 54 50 50 47 44 39 37 38 38 39 41 43 46 50 52 52 51 47 48 50 52 51 51 54 56 59 58 56 57 61
62 62 63 65 66 67 68 67 66 61 61 60 56 54 54 55 48 44 39 40 37 38 41 41 45 48 51 51 52 51 51 48 50 51 51 49 51 53 54 56 56 55 57
59 62 65 68 70 73 74 72 68 66 63 59 54 51 53 53 48 41 41 40 35 38 41 43 46 50 51 53 52 51 50 50 50 50 50 49 48 51 52 52 52 52 52
61 65 68 72 74 75 75 73 70 65 63 59 55 53 54 46 45 40 43 36 36 38 40 43 47 50 51 52 51 50 51 52 52 51 49 48 46 48 49 48 47 46 45
64 67 69 71 72 72 73 71 68 65 62 59 58 52 48 46 42 40 38 35 37 39 41 46 47 49 50 50 50 51 53 53 53 50 49 48 45 44 46 45 43 45 43
63 64 65 67 67 66 65 67 64 61 59 57 54 50 45 44 41 37 35 37 38 39 43 48 50 50 49 51 52 54 55 55 52 51 50 48 44 44 42 39 39 38 40
59 60 60 60 59 61 59 58 59 59 57 55 52 47 46 45 37 36 36 36 38 41 45 49 49 49 49 51 53 54 55 54 50 47 45 44 43 41 39 35 36 36 37
58 59 59 58 57 57 56 55 55 55 54 52 50 47 46 41 36 37 37 37 38 41 43 45 48 46 43 43 43 46 51 51 48 44 42 40 40 39 34 32 33 36 36
58 58 58 59 57 56 55 52 51 51 51 51 49 46 42 38 38 38 36 36 40 40 41 40 39 38 38 36 36 38 42 43 43 38 35 36 38 34 30 28 31 33 34
59 59 60 59 57 55 53 52 51 50 50 48 46 44 41 37 36 36 35 38 38 37 32 30 29 30 30 31 36 40 40 39 36 34 34 35 35 31 26 28 28 33 35
60 59 58 58 59 56 55 53 51 48 47 45 44 42 39 33 35 34 35 34 32 28 25 22 23 20 22 31 36 36 33 31 26 27 32 33 31 28 27 29 30 34 35
Wind_Direction_850mb
109 107 51 53 105 297 270 254 255 285 300 310 323 328 331 333 333 338 342 342 344 344 342 340 341 342 342 343 343 339 335 331 323 324 328 332 332 335 335 335 335 334 332
85 241 233 196 233 236 236 257 283 292 300 309 316 319 323 328 334 335 336 336 335 334 334 335 336 335 337 340 338 337 334 333 329 326 330 332 335 337 335 334 334 334 333
240 206 212 233 240 237 249 267 278 281 290 300 309 318 322 328 327 327 326 327 328 328 330 329 327 331 335 334 335 335 334 335 333 328 329 334 335 338 334 334 333 333 334
197 219 234 237 238 243 255 267 271 277 286 300 307 314 317 318 319 317 317 322 325 325 322 320 323 329 331 332 334 337 337 333 333 333 331 332 336 337 335 332 331 333 333
223 235 235 237 240 248 258 263 268 276 287 297 303 309 312 308 307 311 316 320 321 317 313 315 321 322 326 329 333 334 335 335 334 332 331 330 333 334 332 331 330 328 331
234 234 239 240 242 249 258 264 268 274 288 292 297 299 299 304 310 310 312 314 314 309 309 314 317 320 323 327 328 332 337 335 334 331 327 328 327 327 329 332 326 327 326
235 237 240 242 246 251 259 264 269 276 283 286 289 287 292 300 305 309 310 309 309 307 308 312 315 316 323 324 329 333 335 336 332 327 327 326 322 328 328 324 323 318 318
239 242 243 245 248 254 260 267 274 276 276 277 280 285 290 297 304 306 308 307 305 306 308 310 314 322 327 327 328 332 333 334 333 333 325 320 323 323 318 318 313 315 317
242 245 247 248 253 259 264 268 272 272 271 273 276 282 289 296 301 306 303 300 301 301 302 313 320 322 326 328 328 329 329 332 333 335 330 328 328 327 326 317 325 324 321
249 251 249 251 256 264 271 273 272 269 268 270 274 282 288 295 302 298 295 295 295 300 314 313 315 319 323 327 326 327 328 333 332 332 333 333 333 332 330 330 326 323 320
250 251 254 259 267 274 275 274 271 266 267 271 276 281 286 293 293 293 294 297 296 304 305 306 317 321 324 326 327 329 328 323 329 330 333 335 334 334 333 334 333 326 318
252 255 261 268 272 275 275 274 272 270 270 273 277 281 284 284 283 284 288 292 295 296 300 312 322 324 326 327 329 329 326 328 330 332 333 336 337 336 335 336 336 333 325
253 258 264 270 276 278 279 277 274 272 274 275 278 279 276 275 276 280 283 286 287 292 304 316 320 321 322 326 331 330 329 329 331 332 332 335 335 334 337 336 336 335 334
258 267 273 277 280 281 281 278 276 277 277 275 275 275 273 273 275 277 278 278 284 292 303 313 314 317 323 326 327 328 329 331 331 329 329 331 332 339 340 339 337 339 339
271 274 278 282 283 284 284 283 281 279 276 276 275 271 269 269 271 272 273 278 283 292 304 310 312 318 324 324 326 328 328 326 325 325 327 329 336 337 338 339 340 340 341
278 280 282 282 282 282 283 283 282 281 277 275 271 270 267 264 267 270 273 276 279 292 301 307 315 320 321 322 325 324 324 324 324 325 327 332 333 335 336 339 339 340 340
279 281 281 282 282 283 283 283 283 280 276 274 270 266 262 263 264 270 272 276 282 290 299 308 315 316 318 320 321 320 323 325 322 324 327 330 330 333 336 337 338 338 339
286 285 284 284 284 283 282 282 280 277 276 274 270 265 259 260 262 267 271 276 282 288 300 307 313 314 317 319 319 318 319 320 319 321 324 327 331 331 333 335 336 337 337
289 288 286 284 284 283 280 278 276 275 274 272 266 259 260 259 262 263 271 274 278 289 298 306 309 312 316 315 314 316 316 316 316 319 321 324 328 327 330 333 332 335 336
291 290 289 287 285 282 279 277 275 274 271 268 266 261 257 255 260 266 266 271 281 290 299 304 309 313 313 312 314 314 312 313 313 315 315 317 322 324 327 328 331 333 338
295 293 291 288 286 284 280 276 274 272 270 267 265 263 258 252 260 262 263 271 282 293 300 306 311 311 312 313 314 313 312 312 312 310 309 311 317 320 322 323 327 331 337
303 301 299 295 290 286 283 278 273 270 268 265 262 259 255 255 262 263 266 273 284 295 303 307 307 309 313 316 316 315 314 315 313 307 304 307 313 316 317 319 326 328 338
310 306 302 297 292 288 283 277 272 269 266 263 260 255 251 260 262 261 266 277 290 298 302 304 308 314 319 322 323 323 322 323 319 313 307 306 308 313 315 317 325 330 333
314 309 303 298 292 287 282 278 273 268 264 261 257 252 252 254 256 261 273 285 295 301 304 308 313 320 326 333 334 333 329 326 322 319 312 309 309 314 314 316 327 329 331
310 305 300 295 291 285 280 275 270 267 264 259 254 250 250 252 256 265 278 290 297 301 305 310 316 326 333 340 337 334 332 331 329 324 320 312 310 314 312 312 319 331 327
307 303 298 293 289 285 279 275 271 267 259 254 249 247 249 250 259 272 283 290 295 300 305 312 324 336 345 340 337 334 334 338 342 341 333 326 321 316 312 313 316 308 316